STARLINK-3850, 52342

Orbit data source: Space-Track

STARLINK-3850, 52342 is a payload satellite owned by SpaceX/Seattle (US) in LEO that was launched on Fri, 29 Apr 2022 UTC via an FALCON 9 launch vehicle from the Air Force Eastern Test Range (AFETR). Payload-class satellites include a variety of spacecraft equipped with specific instruments for various scientific and technological missions. These include communications satellites like Starlink; space stations such as the ISS; scientific satellites like the Hubble; Earth observation satellites from companies like Planet Labs, Umbra, and HawkEye 360; GPS; miniature CubeSats for education and research; and military/defense satellites.

Loading next visibility...
Identifier
52342, 2022-045M
Orbit
LEO
Country
Flag of USUS
Related business
Manufacturer
SpaceX/Seattle
Mission
Operational Commercial Communications
Bus & Motor
STARLINK, Unknown motor
Mass
297 kg wet, ~275 kg dry
Launch date (UTC)
2022-04-29 (4 years ago)
Launch vehicle
FALCON 9
Launch site
Air Force Eastern Test Range (AFETR)
Object type
Payload
Rocket body
Debris
Shape & HBR
Box + 1 Pan, 10.1 m
Radar Cross Section
11.087 m², Large (>1 m²)

Expand to show TLE details & history
Last TLE update: 7 hours ago

TLE from 7 hours ago
0 STARLINK-3850
1 52342U 22045M   26119.86308118 -.00001936  00000-0 -10359-3 0  9995
2 52342  53.2173 329.5096 0001294  93.9210 266.1930 15.08832532223509
Epoch: 2026-04-29T20:42Z
TLE epoch observation values (Epoch: 2026-04-29T20:42:50.213Z)
Latitude
-0.00006°
Longitude
160.9824°
Altitude
540.723 km
Speed
7.593 km/s
True Right ascension
21h 58m 02s
True Declination
0° 00' 00"
Sunlit
Object was in daylight at epoch
Visualization orbit readout
Latitude
Unknown
Longitude
Unknown
Altitude
Unknown
Speed
Unknown
Apparent Right ascension
Unknown
Apparent Declination
Unknown
Sunlit
N/A
Visualization observer readout
Local Sidereal Time
11:14:56
Azimuth
Unknown
Elevation
Unknown
Doppler factor
Unknown
Orbital elements
Apogee altitude
540.906 km
Perigee altitude
539.116 km
Semi-major axis
6,918.148 km
Eccentricity
0.00013
Inclination
53.2173°
RAAN
329.5096°
Arg. of periapsis
93.921°
True anomaly
266.1782°
Mean anomaly
266.193°
Eccentric anomaly
266.1856°
Mean motion
3.77188 °/min
Orbital period
95.44 mins
BSTAR
-0.00010359
Loading maneuver chart data...
Computing Atmospheric mass density...

Documentation

Showing up to 5 results
|